| time (UTC) | temp F | wind direction | speed MPH | gust MPH | rain 1hr in | rain 24hr in | rain mn in | humidity % | barometer mb |
| 20260906071558 | 65 | 71 | 1.0 | 11.0 | 0.00 | 0.16 | 0.01 | 84 | 1015.4 |
| 20260906070057 | 65 | 104 | 2.0 | 6.0 | 0.00 | 0.16 | 0.01 | 85 | 1015.3 |
| 20260906064556 | 65 | 50 | 0.0 | 10.0 | 0.01 | 0.16 | 0.01 | 86 | 1015.4 |
| 20260906063056 | 65 | 353 | 0.0 | 5.0 | 0.01 | 0.16 | 0.01 | 87 | 1015.3 |
| 20260906061602 | 65 | 5 | 1.0 | 5.0 | 0.01 | 0.16 | 0.01 | 87 | 1015.5 |
| 20260906060052 | 66 | 330 | 1.0 | 6.0 | 0.01 | 0.16 | 0.01 | 87 | 1015.5 |
| 20260906054549 | 66 | 10 | 3.0 | 5.0 | 0.00 | 0.15 | 0.00 | 88 | 1015.3 |
| 20260906053100 | 67 | 68 | 2.0 | 9.0 | 0.00 | 0.15 | 0.00 | 89 | 1015.2 |
| 20260906051545 | 67 | 17 | 1.0 | 6.0 | 0.00 | 0.15 | 0.00 | 90 | 1015.0 |
| 20260906050043 | 68 | 10 | 1.0 | 9.0 | 0.00 | 0.15 | 0.00 | 92 | 1015.0 |
| 20260906044538 | 69 | 14 | 0.0 | 5.0 | 0.00 | 0.15 | 0.00 | 93 | 1015.0 |
| 20260906043038 | 69 | 341 | 1.0 | 4.0 | 0.00 | 0.15 | 0.00 | 93 | 1014.7 |
| 20260906041545 | 70 | 43 | 2.0 | 8.0 | 0.00 | 0.15 | 0.00 | 94 | 1014.8 |
| 20260906040034 | 70 | 340 | 2.0 | 8.0 | 0.00 | 0.15 | 0.00 | 94 | 1014.7 |
| 20260906034535 | 71 | 147 | 1.0 | 6.0 | 0.00 | 0.15 | 0.15 | 93 | 1014.6 |
| 20260906033030 | 71 | 97 | 1.0 | 6.0 | 0.00 | 0.15 | 0.15 | 93 | 1014.6 |
| 20260906031535 | 72 | 88 | 2.0 | 9.0 | 0.00 | 0.15 | 0.15 | 93 | 1014.5 |
| 20260906030035 | 72 | 100 | 2.0 | 6.0 | 0.00 | 0.15 | 0.15 | 94 | 1014.6 |
| 20260906024528 | 72 | 342 | 2.0 | 8.0 | 0.00 | 0.15 | 0.15 | 94 | 1014.7 |
| 20260906023027 | 73 | 79 | 1.0 | 9.0 | 0.00 | 0.15 | 0.15 | 94 | 1014.7 |
| 20260906021527 | 73 | 54 | 1.0 | 6.0 | 0.00 | 0.15 | 0.15 | 94 | 1014.6 |
| 20260906020026 | 73 | 91 | 0.0 | 8.0 | 0.00 | 0.15 | 0.15 | 93 | 1014.4 |
| 20260906014540 | 73 | 5 | 1.0 | 8.0 | 0.00 | 0.15 | 0.15 | 93 | 1014.2 |
| 20260906013027 | 73 | 353 | 4.0 | 11.0 | 0.00 | 0.15 | 0.15 | 92 | 1014.1 |
| 20260906011525 | 74 | 128 | 2.0 | 5.0 | 0.00 | 0.15 | 0.15 | 92 | 1013.9 |
| 20260906010053 | 74 | 72 | 1.0 | 4.0 | 0.00 | 0.15 | 0.15 | 93 | 1013.9 |
| 20260906004524 | 75 | 349 | 1.0 | 8.0 | 0.00 | 0.15 | 0.15 | 93 | 1013.7 |
| 20260906003024 | 75 | 39 | 3.0 | 6.0 | 0.00 | 0.15 | 0.15 | 94 | 1013.2 |
| 20260906001533 | 76 | 36 | 1.0 | 7.0 | 0.00 | 0.15 | 0.15 | 94 | 1013.2 |
| 20260906000023 | 75 | 343 | 0.0 | 4.0 | 0.00 | 0.15 | 0.15 | 94 | 1013.2 |
| 20260905234522 | 75 | 303 | 0.0 | 0.0 | 0.00 | 0.15 | 0.15 | 92 | 1013.2 |
| 20260905233021 | 75 | 303 | 0.0 | 2.0 | 0.00 | 0.15 | 0.15 | 92 | 1013.0 |
| 20260905231535 | 75 | 301 | 3.0 | 4.0 | 0.00 | 0.15 | 0.15 | 93 | 1013.0 |
| 20260905230020 | 76 | 82 | 0.0 | 3.0 | 0.00 | 0.15 | 0.15 | 94 | 1013.3 |
| 20260905224520 | 76 | 84 | 0.0 | 2.0 | 0.00 | 0.15 | 0.15 | 94 | 1013.3 |
| 20260905223029 | 76 | 84 | 1.0 | 3.0 | 0.00 | 0.15 | 0.15 | 93 | 1013.1 |
| 20260905221517 | 77 | 79 | 1.0 | 2.0 | 0.01 | 0.15 | 0.15 | 90 | 1012.8 |
| 20260905220024 | 77 | 283 | 2.0 | 11.0 | 0.13 | 0.15 | 0.15 | 88 | 1012.9 |
| 20260905214518 | 78 | 214 | 1.0 | 4.0 | 0.13 | 0.15 | 0.15 | 91 | 1012.6 |
| 20260905213020 | 79 | 76 | 0.0 | 0.0 | 0.13 | 0.15 | 0.15 | 86 | 1012.5 |
| 20260905211534 | 85 | 43 | 6.0 | 13.0 | 0.11 | 0.13 | 0.13 | 72 | 1012.3 |
| 20260905210013 | 88 | 285 | 5.0 | 10.0 | 0.00 | 0.02 | 0.02 | 67 | 1012.3 |
| 20260905204518 | 88 | 314 | 5.0 | 10.0 | 0.00 | 0.02 | 0.02 | 69 | 1012.6 |
| 20260905203009 | 87 | 278 | 3.0 | 9.0 | 0.00 | 0.02 | 0.02 | 69 | 1012.7 |
| 20260905201508 | 87 | 303 | 5.0 | 11.0 | 0.00 | 0.02 | 0.02 | 69 | 1012.9 |
| 20260905200005 | 87 | 321 | 6.0 | 9.0 | 0.00 | 0.02 | 0.02 | 67 | 1013.0 |
| 20260905194505 | 88 | 273 | 2.0 | 8.0 | 0.00 | 0.02 | 0.02 | 67 | 1013.2 |
| 20260905193004 | 87 | 304 | 6.0 | 10.0 | 0.00 | 0.02 | 0.02 | 67 | 1013.4 |
| 20260905191502 | 87 | 291 | 5.0 | 10.0 | 0.00 | 0.02 | 0.02 | 67 | 1013.5 |
| 20260905190002 | 87 | 262 | 6.0 | 11.0 | 0.00 | 0.02 | 0.02 | 65 | 1013.6 |
| 20260905184611 | 86 | 316 | 4.0 | 11.0 | 0.00 | 0.02 | 0.02 | 68 | 1013.8 |
| 20260905183111 | 86 | 312 | 8.0 | 11.0 | 0.00 | 0.02 | 0.02 | 67 | 1014.0 |
| 20260905181555 | 85 | 267 | 5.0 | 10.0 | 0.00 | 0.02 | 0.02 | 70 | 1014.1 |
| 20260905180056 | 84 | 305 | 4.0 | 11.0 | 0.00 | 0.02 | 0.02 | 70 | 1014.1 |
| 20260905174551 | 84 | 268 | 7.0 | 11.0 | 0.00 | 0.02 | 0.02 | 71 | 1014.1 |
| 20260905173046 | 82 | 293 | 5.0 | 11.0 | 0.00 | 0.02 | 0.02 | 79 | 1014.2 |
| 20260905171545 | 81 | 289 | 3.0 | 9.0 | 0.01 | 0.02 | 0.02 | 82 | 1014.3 |
| 20260905170047 | 79 | 242 | 1.0 | 3.0 | 0.01 | 0.02 | 0.02 | 84 | 1014.4 |
| 20260905164539 | 77 | 311 | 0.0 | 0.0 | 0.01 | 0.02 | 0.02 | 88 | 1014.6 |
| 20260905163041 | 76 | 314 | 0.0 | 7.0 | 0.01 | 0.02 | 0.02 | 85 | 1014.7 |
| 20260905161538 | 78 | 278 | 4.0 | 11.0 | 0.00 | 0.01 | 0.01 | 81 | 1015.0 |
| 20260905160038 | 80 | 253 | 3.0 | 7.0 | 0.00 | 0.01 | 0.01 | 76 | 1014.9 |
| 20260905154538 | 81 | 283 | 5.0 | 10.0 | 0.00 | 0.01 | 0.01 | 75 | 1014.8 |
| 20260905153031 | 79 | 211 | 4.0 | 10.0 | 0.00 | 0.01 | 0.01 | 78 | 1014.8 |
| 20260905151535 | 78 | 220 | 2.0 | 9.0 | 0.01 | 0.01 | 0.01 | 79 | 1014.8 |
| 20260905150025 | 77 | 202 | 4.0 | 8.0 | 0.01 | 0.01 | 0.01 | 81 | 1014.5 |
| 20260905144528 | 76 | 198 | 6.0 | 11.0 | 0.01 | 0.01 | 0.01 | 81 | 1014.5 |
| 20260905143016 | 76 | 174 | 7.0 | 11.0 | 0.01 | 0.01 | 0.01 | 83 | 1014.2 |
| 20260905141512 | 75 | 185 | 6.0 | 10.0 | 0.00 | 0.00 | 0.00 | 84 | 1014.7 |
| 20260905140007 | 74 | 168 | 4.0 | 8.0 | 0.00 | 0.00 | 0.00 | 85 | 1014.7 |
| 20260905134503 | 73 | 182 | 3.0 | 9.0 | 0.00 | 0.00 | 0.00 | 87 | 1014.7 |
| 20260905133059 | 72 | 189 | 0.0 | 10.0 | 0.00 | 0.00 | 0.00 | 88 | 1014.9 |
| 20260905131558 | 71 | 194 | 1.0 | 9.0 | 0.00 | 0.00 | 0.00 | 90 | 1015.2 |
| 20260905130052 | 70 | 136 | 3.0 | 7.0 | 0.00 | 0.00 | 0.00 | 92 | 1015.3 |
| 20260905124549 | 68 | 141 | 0.0 | 4.0 | 0.00 | 0.00 | 0.00 | 93 | 1015.5 |
| 20260905123045 | 68 | 163 | 2.0 | 5.0 | 0.00 | 0.00 | 0.00 | 91 | 1015.5 |
| 20260905121546 | 68 | 132 | 4.0 | 7.0 | 0.00 | 0.00 | 0.00 | 91 | 1015.4 |
| 20260905120044 | 68 | 109 | 1.0 | 6.0 | 0.00 | 0.00 | 0.00 | 91 | 1015.2 |
| 20260905114546 | 68 | 114 | 4.0 | 10.0 | 0.00 | 0.00 | 0.00 | 90 | 1014.8 |
| 20260905113043 | 68 | 108 | 5.0 | 11.0 | 0.00 | 0.00 | 0.00 | 89 | 1015.1 |
| 20260905111542 | 68 | 83 | 3.0 | 9.0 | 0.00 | 0.00 | 0.00 | 89 | 1015.4 |
| 20260905110045 | 68 | 98 | 3.0 | 9.0 | 0.00 | 0.00 | 0.00 | 89 | 1015.6 |
| 20260905104538 | 68 | 202 | 2.0 | 9.0 | 0.00 | 0.00 | 0.00 | 91 | 1016.2 |
| 20260905103039 | 68 | 295 | 4.0 | 7.0 | 0.00 | 0.00 | 0.00 | 92 | 1016.1 |
| 20260905101538 | 68 | 346 | 1.0 | 10.0 | 0.00 | 0.00 | 0.00 | 92 | 1015.9 |
| 20260905100041 | 68 | 115 | 4.0 | 11.0 | 0.00 | 0.00 | 0.00 | 91 | 1015.8 |
| 20260905094533 | 69 | 140 | 3.0 | 18.0 | 0.00 | 0.00 | 0.00 | 89 | 1016.1 |
| 20260905093033 | 69 | 132 | 5.0 | 12.0 | 0.00 | 0.00 | 0.00 | 87 | 1016.2 |
| 20260905091534 | 70 | 307 | 6.0 | 17.0 | 0.00 | 0.00 | 0.00 | 88 | 1016.2 |
| 20260905090027 | 70 | 10 | 10.0 | 27.0 | 0.00 | 0.00 | 0.00 | 96 | 1015.9 |
| 20260905084524 | 70 | 172 | 0.0 | 0.0 | 0.00 | 0.00 | 0.00 | 97 | 1014.6 |
| 20260905083023 | 69 | 172 | 0.0 | 0.0 | 0.00 | 0.00 | 0.00 | 97 | 1014.4 |
| 20260905081522 | 69 | 172 | 0.0 | 0.0 | 0.00 | 0.00 | 0.00 | 97 | 1014.2 |
| 20260905080022 | 69 | 172 | 0.0 | 0.0 | 0.00 | 0.00 | 0.00 | 97 | 1013.9 |
| 20260905074524 | 69 | 172 | 0.0 | 0.0 | 0.00 | 0.00 | 0.00 | 97 | 1013.9 |
| 20260905073021 | 70 | 172 | 0.0 | 0.0 | 0.00 | 0.00 | 0.00 | 97 | 1013.7 |